www.pogodaiklimat.ru

Погода и климат >> Архив погоды >> Россия >> Магаданская область >> Эвенск


ПОГОДА в Эвенске

  • Прогноз погоды в Эвенске
  • Монитор погоды в Эвенске
  • Климат города

АРХИВ ПОГОДЫ в Эвенске

Время (UTC), дата Ветер
(напр.,м/с)
 
Видим.   Явления Облачность Т
(С)
Тd
(С)
f
(%)
Тe
(С)
Тes
(С)
Комфортность P
(гПа)
Po
(гПа)
Тmin
(С)
Tmax
(С)
R
(мм)
R24
(мм)
S
(см)
00 11.11 ЮВ 6
{12}
4000 м слабый ливневой снег 10/8 600 м
[Cb cap Ac und]
+1.2 -1.6 82 -5 -5 996.3 994.8
03 11.11 Ю 14-19
{22}
4000 м слабый ливневой снег {метель} 10/8 600 м
[Cb cap Ac und]
-0.7 -2.8 86 -10 -10 995.8 994.3
06 11.11 ЮЗ 11-17
{20}
4000 м слабый ливневой снег {метель} 10/10 600 м
[Cb cap]
-2.6 -4.0 90 -12 -12 1001.2 999.7
09 11.11 ЮЗ 9-11
{17}
4000 м слабый ливневой снег {метель} 10/10 600 м
[Cb cap]
-3.7 -5.9 85 -13 -13 1004.5 1003.0 +1.8 0.7
12 11.11 штиль 0 н/о н/о -6.2 -9.5 77 -7 -7 1008.8 1007.3
15 11.11 штиль 0 н/о н/о -11.5 -17.2 63 -12 -12 1013.6 1012.1
18 11.11 штиль 0 н/о н/о -13.8 -20.7 56 -14 -14 1018.1 1016.5
21 11.11 СЗ 1 50 км 4/0
[Ac As]
-17.6 -22.0 68 -20 -20 1021.0 1019.4 -17.6 0.0 19
00 12.11 С 3 50 км 8/3 1000 м
[Sc Ac trans]
-13.1 -21.0 51 -19 -19 1023.6 1022.1 -18.2
03 12.11 С 3 50 км 9/0
[Ac trans]
-11.9 -20.0 51 -18 -18 1021.9 1020.4
06 12.11 СВ 5 50 км 9/0
[Ac As]
-12.0 -19.9 52 -20 -20 1021.5 1020.0
09 12.11 СВ 9-13
{15}
50 км 10/6 1000 м
[Sc Ac As]
-9.8 -17.2 55 -20 -20 1020.1 1018.5 -9.8
12 12.11 штиль 0 н/о н/о -8.4 -13.6 66 -9 -9 1018.7 1017.1
15 12.11 штиль 0 н/о н/о -7.0 -10.9 74 -8 -8 1017.3 1015.8
18 12.11 штиль 0 н/о н/о -4.9 -8.6 75 -6 -6 1015.1 1013.6
21 12.11 С 11-16
{17}
2000 м ливневой снег {метель} 10/10 600 м
[Cb cap]
-5.9 -6.9 93 -16 -16 1014.1 1012.6 -9.7 0.0 20
00 13.11 СВ 10-15
{19}
4000 м слабый ливневой снег {метель} 10/9 600 м
[Cb cap Ac und]
-4.6 -6.1 89 -14 -14 1012.0 1010.5
03 13.11 СВ 10-16
{18}
2000 м ливневой снег {метель} 10/10 600 м
[Cb cap]
-3.8 -5.1 91 -13 -13 1009.8 1008.3
06 13.11 СВ 9-17
{19}
4000 м слабый ливневой снег {метель} 10/8 600 м
[Cb cap Ac und]
-2.9 -4.6 88 -12 -12 1008.4 1006.9
09 13.11 СВ 9-17
{18}
4000 м слабый ливневой снег {метель} 10/8 600 м
[Cb cap Ac und]
-2.6 -3.8 91 -11 -11 1007.5 1006.0 -2.2 5
12 13.11 штиль 0 н/о н/о -1.8 -4.6 81 -3 -3 1006.1 1004.6
15 13.11 штиль 0 н/о н/о -1.6 -4.7 79 -3 -3 1003.5 1002.0
18 13.11 штиль 0 н/о н/о -0.4 -4.1 76 -1 -1 1001.7 1000.2
21 13.11 С 8-11
{15}
2000 м ливневой снег {метель} 10/10 600 м
[Cb cap]
-1.4 -2.5 92 -9 -9 1000.3 998.8 -2.6 1 23
00 14.11 С 8-12
{15}
2000 м ливневой снег {метель} 10/10 600 м
[Cb cap]
-0.8 -1.7 94 -9 -9 998.4 996.9
03 14.11 СВ 5
{11}
4000 м слабый ливневой снег {метель} 10/10 600 м
[Cb cap]
-0.5 -1.7 92 -7 -7 997.2 995.7
06 14.11 СЗ 2 4000 м слабый ливневой снег {метель} 10/10 600 м
[Cb cap]
-3.5 -5.2 88 -8 -8 997.5 996.0
09 14.11 СЗ 6
{12}
4000 м слабый ливневой снег 10/10 600 м
[Cb cap]
-7.4 -10.0 82 -16 -16 997.6 996.1 -0.2 4
12 14.11 штиль 0 н/о н/о -8.9 -10.7 87 -9 -9 998.5 996.9
15 14.11 штиль 0 н/о н/о -9.5 -11.9 83 -10 -10 999.8 998.2
18 14.11 штиль 0 н/о н/о -10.4 -13.8 76 -11 -11 1001.8 1000.2
21 14.11 СЗ 7-11
{12}
50 км позёмок {метель} 10/10 870 м
[Cb calv]
-11.4 -16.4 66 -21 -21 1003.5 1002.0 -11.4 0.7 30
00 15.11 СЗ 5-10
{11}
50 км {метель} 8/8 870 м
[Cb calv]
-10.8 -17.4 58 -19 -19 1007.1 1005.5 -11.6
03 15.11 СЗ 4 50 км 5/5 600 м
[Cb calv]
-11.5 -18.4 57 -19 -18 1009.0 1007.5
06 15.11 СВ 2 50 км 3/3 600 м
[Cb calv]
-16.7 -20.8 70 -22 -22 1011.0 1009.4
09 15.11 С 2 50 км 1/1 600 м
[Cb calv]
-16.6 -21.5 66 -22 -22 1012.0 1010.4 -9.7
12 15.11 СВ 4
{10}
н/о н/о -15.0 -20.7 62 -23 -23 1010.6 1009.1
15 15.11 штиль 0
{10}
н/о н/о -12.3 -18.7 59 -12 -12 1007.9 1006.3
18 15.11 штиль 0 н/о н/о -9.9 -15.5 64 -10 -10 1006.2 1004.6
21 15.11 СВ 9-11
{15}
4000 м слабый ливневой снег {метель} 10/10 600 м
[Cb cap]
-10.2 -11.9 87 -20 -20 1005.5 1004.0 -17.7 0.3 31
00 16.11 СВ 7-11
{15}
2000 м ливневой снег {метель} 10/10 600 м
[Cb cap]
-9.6 -11.3 87 -19 -19 1006.0 1004.5
03 16.11 СВ 5
{11}
20 км осадки на расстоянии {ливн. осадки, метель} 10/8 500 м
[Cb calv Ac As]
-8.0 -11.3 77 -16 -16 1007.3 1005.8
06 16.11 СВ 4 50 км {ливн. осадки, метель} 10/8 600 м
[Cb calv Ac As]
-7.9 -10.6 81 -15 -15 1009.1 1007.6
09 16.11 С 4 4000 м слабый ливневой снег 10/10 600 м
[Cb cap]
-7.7 -9.3 88 -14 -14 1011.3 1009.7 -7.5 3
12 16.11 штиль 0 н/о н/о -7.4 -8.8 90 -8 -8 1014.7 1013.1
15 16.11 штиль 0 н/о н/о -1.1 -4.4 78 -2 -2 1017.4 1015.9
18 16.11 штиль 0 н/о н/о -1.0 -5.3 73 -2 -2 1018.2 1016.7
21 16.11 ЮЗ 5 50 км 8/8 600 м
[Cb calv]
-2.2 -7.2 69 -8 -8 1018.7 1017.2 -7.8 0.0 31
00 17.11 С 4 50 км {ливн. осадки} 10/10 600 м
[Cb calv]
-5.1 -8.4 78 -11 -11 1018.7 1017.2
03 17.11 СВ 4 50 км 10/10 600 м
[Cb calv]
-2.9 -7.1 73 -9 -9 1015.4 1013.9
06 17.11 штиль 0 50 км 10/10 600 м
[Cb calv]
-3.3 -6.5 78 -4 -4 1011.9 1010.4
09 17.11 СВ 9-15
{16}
2000 м ливневой снег {метель} 10/10 600 м
[Cb cap]
-3.3 -4.1 94 -12 -12 1007.7 1006.2 -2.2 1
12 17.11 штиль 0 н/о н/о -3.0 -3.8 94 -4 -4 1002.8 1001.3
15 17.11 штиль 0 н/о н/о -1.9 -2.6 95 -3 -3 998.4 997.0
18 17.11 штиль 0 н/о н/о -1.2 -1.8 96 -3 -3 995.7 994.3

 

Местоположение метеостанции Эвенск (Магаданская область, Россия): широта 61.92 долгота 159.20 высота над уровнем моря 12 м.

В архиве по умолчанию представлена погода в Эвенске за последнюю неделю. Архивные данные за месяц целиком и за предыдущие месяцы, начиная с января 2011 года, Вы можете получить, выбрав интересующий диапазон дат из раскрывающегося списка и нажав кнопку "Ввод!".

Внимание! Время в таблицах - всемирное. Для получения местного времени необходимо прибавить поправку, которая в Эвенске равна 11 ч.

Смотрите также архив погоды в соседних городах и на ближайших метеорологических станциях:

Погода в Лабазной (Магаданская область, Россия) (158 км)
Погода в Омсукчане (Магаданская область, Россия) (188 км)
Погода в Шелихова (Магаданская область, Россия) (225 км)
Погода в Чемурнауте (Камчатский край, Россия) (242 км)
Погода в Кегали (Магаданская область, Россия) (275 км)
Погода в Палане (Камчатский край, Россия) (318 км)
Погода в Балыгычане (Магаданская область, Россия) (340 км)
Погода в Верхне-Пенжино (Камчатский край, Россия) (359 км)
Погода в Среднекане (Магаданская область, Россия) (363 км)
Погода в Оссоре (Камчатский край, Россия) (364 км)

Пояснения к столбцам:

Ветер - указаны скорость ветра в м/с - средняя за 10 мин, порывы в срок и между сроками (в фигурных скобках) и направление, откуда дует ветер: С - северный, СВ - северо-восточный, В - восточный, ЮВ - юго-восточный, Ю - южный, ЮЗ - юго-западный, З - западный, СЗ - северо-западный.
Видимость - горизонтальная дальность видимости в метрах или километрах. При видимости от 1 до 10 км при отсутствии осадков обычно наблюдается дымка, при ухудшении видимости до 1 км и менее - туман. В сухую погоду видимость может ухудшаться дымом, пылью или мглою.
Явления - указаны атмосферные явления, наблюдавшиеся в срок или в последний час перед сроком; фигурными скобками обозначены явления, наблюдавшиеся между сроками (за 1-3 часа до срока); квадратными скобками обозначены град или гололедные отложения с указанием их диаметра в мм.
Облачность - указаны через наклонную черту общая и нижняя облачность в баллах и высота нижней границы облаков в метрах; квадратными скобками обозначены формы облаков: Ci - перистые, Cs - перисто-слоистые, Cc - перисто-кучевые, Ac - высококучевые, As - высокослоистые, Sc - слоисто-кучевые, Ns - слоисто-дождевые, Cu - кучевые, Cb - кучево-дождевые. Подробнее классификацию облаков см. в Атласе облаков (PDF).
T - Температура воздуха - температура, измеренная на высоте 2 м над землей.
Td - Температура точки росы - температура, при понижении до которой содержащийся в воздухе водяной пар достигнет насыщения.
f - Относительная влажность воздуха - влажноcть воздуха, измеренная на высоте 2 м над землей.
Te - Эффективная температура - температура, которую ощущает одетый по сезону человек в тени. Характеристика душности погоды. При расчете учитывается влияние влажности воздуха и скорости ветра на теплоощущения человека.
Tes - Эффективная температура на солнце - температура, которую ощущает человек, с поправкой на солнечный нагрев. Характеристика знойности погоды. Зависит от высоты солнца над горизонтом, облачности и скорости ветра. Ночью, в пасмурную погоду, а также при ветре 12 м/с и более поправка равна нулю.
P - Атмосферное давление - приведенное к уровню моря атмосферное давление.
Po - Атмосферное давление - измеренное на уровне метеостанции атмосферное давление.
Tmin - Минимальная температура - минимум температуры воздуха на высоте 2 м над землей.
Tmax - Максимальная температура - максимум температуры воздуха на высоте 2 м над землей.
R - Количество осадков - Количество выпавших осадков за период времени, мм. При наведении курсора мыши на число - период времени, за который выпало указанное количество осадков.
R24 - Количество осадков - Количество выпавших осадков за 24 часа, мм.
S - Снежный покров - Высота снежного покрова, см. При наведении курсора мыши на число - состояние снежного покрова и степень покрытия местности в баллах.